TimeEDT,TemperatureF,Dew PointF,Humidity,Sea Level PressureIn,VisibilityMPH,Wind Direction,Wind SpeedMPH,Gust SpeedMPH,PrecipitationIn,Events,Conditions,WindDirDegrees,DateUTC
12:15 AM,28.2,26.4,93,30.25,1.2,North,-9999.0,-,N/A,Snow,Snow,0,2013-03-14 04:15:00
12:35 AM,27.9,26.4,94,30.25,5.0,North,-9999.0,-,N/A,Snow,Light Snow,0,2013-03-14 04:35:00
12:55 AM,28.2,25.0,88,30.25,10.0,North,-9999.0,-,N/A,,Overcast,0,2013-03-14 04:55:00
1:15 AM,28.4,24.1,84,30.25,10.0,North,-9999.0,-,N/A,,Overcast,0,2013-03-14 05:15:00
1:35 AM,28.4,23.4,81,30.26,10.0,North,-9999.0,-,N/A,,Overcast,0,2013-03-14 05:35:00
1:55 AM,28.4,23.2,81,30.26,7.0,North,-9999.0,-,N/A,Snow,Light Snow,0,2013-03-14 05:55:00
2:15 AM,28.4,22.8,80,30.25,10.0,North,-9999.0,-,N/A,Snow,Light Snow,0,2013-03-14 06:15:00
2:35 AM,28.4,23.0,80,30.26,10.0,North,-9999.0,-,N/A,Snow,Light Snow,0,2013-03-14 06:35:00
2:55 AM,28.4,23.0,80,30.26,5.0,North,-9999.0,-,N/A,Snow,Light Snow,0,2013-03-14 06:55:00
3:15 AM,28.4,23.0,80,30.26,5.0,North,-9999.0,-,N/A,Snow,Light Snow,0,2013-03-14 07:15:00
3:35 AM,27.9,23.7,84,30.26,3.0,North,-9999.0,-,N/A,Snow,Light Snow,0,2013-03-14 07:35:00
3:55 AM,27.5,24.6,89,30.26,1.8,North,-9999.0,-,N/A,Snow,Light Snow,0,2013-03-14 07:55:00
4:15 AM,27.0,23.0,85,30.27,7.0,North,-9999.0,-,N/A,Snow,Light Snow,0,2013-03-14 08:15:00
4:35 AM,27.1,22.1,81,30.27,10.0,North,-9999.0,-,N/A,,Overcast,0,2013-03-14 08:35:00
4:55 AM,27.3,20.3,75,30.27,10.0,North,-9999.0,-,N/A,Snow,Light Snow,0,2013-03-14 08:55:00
5:15 AM,27.5,19.8,73,30.28,10.0,North,-9999.0,-,N/A,,Overcast,0,2013-03-14 09:15:00
5:35 AM,27.3,19.4,72,30.28,10.0,North,-9999.0,-,N/A,,Overcast,0,2013-03-14 09:35:00
5:55 AM,27.3,19.8,73,30.28,10.0,North,-9999.0,-,N/A,,Overcast,0,2013-03-14 09:55:00
6:15 AM,27.3,19.8,73,30.29,10.0,North,-9999.0,-,N/A,,Overcast,0,2013-03-14 10:15:00
6:35 AM,27.3,19.6,73,30.30,10.0,North,-9999.0,-,N/A,,Overcast,0,2013-03-14 10:35:00
6:55 AM,27.3,19.6,73,30.30,10.0,North,-9999.0,-,N/A,,Overcast,0,2013-03-14 10:55:00
7:15 AM,26.8,19.4,74,30.31,10.0,North,-9999.0,-,N/A,,Overcast,0,2013-03-14 11:15:00
7:35 AM,27.1,19.2,72,30.32,10.0,North,-9999.0,-,N/A,,Overcast,0,2013-03-14 11:35:00
7:55 AM,27.1,19.0,72,30.32,10.0,North,-9999.0,-,N/A,,Overcast,0,2013-03-14 11:55:00
8:15 AM,27.0,18.9,72,30.33,10.0,North,-9999.0,-,N/A,,Overcast,0,2013-03-14 12:15:00
8:35 AM,27.0,18.5,70,30.33,10.0,North,-9999.0,-,N/A,,Mostly Cloudy,0,2013-03-14 12:35:00
8:55 AM,27.0,18.5,70,30.34,10.0,North,-9999.0,-,N/A,,Mostly Cloudy,0,2013-03-14 12:55:00
9:15 AM,27.5,18.9,70,30.33,10.0,North,-9999.0,-,N/A,,Mostly Cloudy,0,2013-03-14 13:15:00
9:35 AM,28.6,19.2,68,30.34,10.0,North,-9999.0,-,N/A,,Scattered Clouds,0,2013-03-14 13:35:00
10:15 AM,30.6,20.1,65,30.33,10.0,North,-9999.0,-,N/A,,Scattered Clouds,0,2013-03-14 14:15:00
10:35 AM,30.7,20.1,65,30.34,10.0,North,-9999.0,-,N/A,,Clear,0,2013-03-14 14:35:00
10:55 AM,31.5,19.6,62,30.33,10.0,North,-9999.0,-,N/A,,Scattered Clouds,0,2013-03-14 14:55:00
11:15 AM,32.2,18.9,58,30.33,10.0,North,-9999.0,-,N/A,,Clear,0,2013-03-14 15:15:00
11:35 AM,33.1,20.1,59,30.32,10.0,North,-9999.0,-,N/A,,Clear,0,2013-03-14 15:35:00
11:55 AM,34.5,20.3,56,30.32,10.0,North,-9999.0,-,N/A,,Clear,0,2013-03-14 15:55:00
12:15 PM,34.5,19.0,53,30.31,10.0,North,-9999.0,-,N/A,,Clear,0,2013-03-14 16:15:00
12:35 PM,35.2,18.5,51,30.31,10.0,North,-9999.0,-,N/A,,Clear,0,2013-03-14 16:35:00
12:55 PM,36.3,18.0,47,30.30,10.0,North,-9999.0,-,N/A,,Clear,0,2013-03-14 16:55:00
1:35 PM,38.3,18.3,45,30.28,10.0,North,-9999.0,-,N/A,,Clear,0,2013-03-14 17:35:00
1:55 PM,39.6,18.5,43,30.28,10.0,North,-9999.0,-,N/A,,Clear,0,2013-03-14 17:55:00
2:15 PM,40.6,18.9,42,30.27,10.0,North,-9999.0,-,N/A,,Clear,0,2013-03-14 18:15:00
2:35 PM,41.2,18.9,41,30.26,10.0,North,-9999.0,-,N/A,,Clear,0,2013-03-14 18:35:00
2:55 PM,42.6,20.8,42,30.25,10.0,North,-9999.0,-,N/A,,Clear,0,2013-03-14 18:55:00
3:15 PM,42.6,19.0,39,30.24,10.0,North,-9999.0,-,N/A,,Clear,0,2013-03-14 19:15:00
3:55 PM,43.5,18.1,36,30.23,10.0,North,-9999.0,-,N/A,,Clear,0,2013-03-14 19:55:00
4:15 PM,44.2,18.3,35,30.23,10.0,North,-9999.0,-,N/A,,Clear,0,2013-03-14 20:15:00
4:35 PM,44.6,18.9,36,30.23,10.0,North,-9999.0,-,N/A,,Clear,0,2013-03-14 20:35:00
4:55 PM,44.6,18.5,35,30.22,10.0,North,-9999.0,-,N/A,,Clear,0,2013-03-14 20:55:00
5:15 PM,44.2,18.5,36,30.22,10.0,North,-9999.0,-,N/A,,Clear,0,2013-03-14 21:15:00
5:35 PM,45.1,19.8,36,30.21,10.0,North,-9999.0,-,N/A,,Clear,0,2013-03-14 21:35:00
5:55 PM,43.0,18.1,37,30.21,10.0,North,-9999.0,-,N/A,,Clear,0,2013-03-14 21:55:00
6:15 PM,41.9,18.7,39,30.21,10.0,North,-9999.0,-,N/A,,Clear,0,2013-03-14 22:15:00
6:35 PM,41.4,18.7,40,30.21,10.0,North,-9999.0,-,N/A,,Clear,0,2013-03-14 22:35:00
6:55 PM,41.0,19.4,42,30.21,10.0,North,-9999.0,-,N/A,,Clear,0,2013-03-14 22:55:00
7:15 PM,39.4,21.0,48,30.21,10.0,North,-9999.0,-,N/A,,Clear,0,2013-03-14 23:15:00
7:35 PM,36.9,24.4,61,30.21,10.0,North,-9999.0,-,N/A,,Clear,0,2013-03-14 23:35:00
7:55 PM,34.3,25.5,70,30.21,10.0,North,-9999.0,-,N/A,,Clear,0,2013-03-14 23:55:00
8:15 PM,33.1,26.1,75,30.21,10.0,North,-9999.0,-,N/A,,Clear,0,2013-03-15 00:15:00
8:35 PM,32.0,27.1,82,30.21,10.0,North,-9999.0,-,N/A,,Clear,0,2013-03-15 00:35:00
8:55 PM,31.8,26.2,80,30.21,10.0,North,-9999.0,-,N/A,,Clear,0,2013-03-15 00:55:00
9:15 PM,31.3,27.0,84,30.21,10.0,North,-9999.0,-,N/A,,Clear,0,2013-03-15 01:15:00
9:35 PM,30.9,26.8,85,30.21,10.0,North,-9999.0,-,N/A,,Clear,0,2013-03-15 01:35:00
9:55 PM,30.4,25.7,83,30.22,10.0,North,-9999.0,-,N/A,,Clear,0,2013-03-15 01:55:00
10:15 PM,29.8,26.6,88,30.22,10.0,North,-9999.0,-,N/A,,Clear,0,2013-03-15 02:15:00
10:35 PM,29.7,25.7,85,30.22,10.0,North,-9999.0,-,N/A,,Clear,0,2013-03-15 02:35:00
10:55 PM,29.3,25.5,86,30.23,10.0,North,-9999.0,-,N/A,,Clear,0,2013-03-15 02:55:00
11:15 PM,29.1,25.9,88,30.23,10.0,North,-9999.0,-,N/A,,Clear,0,2013-03-15 03:15:00
11:35 PM,28.4,26.1,91,30.23,10.0,North,-9999.0,-,N/A,,Clear,0,2013-03-15 03:35:00
11:55 PM,28.2,25.5,90,30.23,10.0,North,-9999.0,-,N/A,,Clear,0,2013-03-15 03:55:00